BADR-4 (29526 NORAD) Tracking and Keplerian Element Data

This shows tracking and keplerian element data for the satellite.

Feedback or suggestion? Click here.




ElementValue
Catalog29526
NameBADR-4
Epoch Orbit4626
Epoch Day34.6887867
Epoch Year2025
RAAN85.9228
Inclination0.7141
Eccentricity0.0008188
Argument of Perigee237.3939
Mean Anonmoly84.9562
Mean Motion1.00270018
Decay Rate1.49E-06
L11 29526U 06051A 25034.68878670 .00000149 00000+0 00000+0 0 9992
L22 29526 0.7141 85.9228 0008188 237.3939 84.9562 1.00270018 46265



Live tracking and technical data element details for BADR-4 (NORAD 29526). BADR-4 can be tracked NOW for your location showing map with azimuth and elevation plus other details from your city location.







IsCatalogInMostPopularTable: catalog: 29526, numindb: 401
Update: records affected: 1



GetName: 29526 BADR-4

Hit Count: updated at: Fri, 16 May 2025 11:40:56 GMT